TimeCDT,TemperatureF,Dew PointF,Humidity,Sea Level PressureIn,VisibilityMPH,Wind Direction,Wind SpeedMPH,Gust SpeedMPH,PrecipitationIn,Events,Conditions,WindDirDegrees,DateUTC
12:53 AM,81.0,66.9,62,29.78,10.0,SSE,5.8,-,N/A,,Scattered Clouds,160,2013-06-26 05:53:00
1:53 AM,80.1,66.9,64,29.76,10.0,SSE,8.1,-,N/A,,Scattered Clouds,150,2013-06-26 06:53:00
2:53 AM,80.1,66.9,64,29.73,10.0,SSE,8.1,-,N/A,,Overcast,160,2013-06-26 07:53:00
3:53 AM,79.0,66.9,66,29.72,10.0,South,6.9,-,N/A,,Clear,170,2013-06-26 08:53:00
4:53 AM,80.1,66.9,64,29.73,10.0,South,9.2,16.1,N/A,,Clear,190,2013-06-26 09:53:00
5:53 AM,79.0,66.9,66,29.73,10.0,SSW,4.6,-,N/A,,Clear,200,2013-06-26 10:53:00
6:53 AM,78.1,68.0,71,29.74,10.0,SSW,4.6,-,N/A,,Clear,200,2013-06-26 11:53:00
7:53 AM,79.0,68.0,69,29.75,10.0,SSE,3.5,-,N/A,,Clear,150,2013-06-26 12:53:00
8:53 AM,82.9,69.1,63,29.75,10.0,WSW,12.7,17.3,N/A,,Clear,250,2013-06-26 13:53:00
9:53 AM,84.9,68.0,57,29.73,10.0,West,13.8,24.2,N/A,,Clear,260,2013-06-26 14:53:00
10:53 AM,88.0,70.0,55,29.74,10.0,West,15.0,24.2,N/A,,Clear,270,2013-06-26 15:53:00
11:53 AM,91.0,70.0,50,29.75,10.0,WSW,9.2,17.3,N/A,,Clear,250,2013-06-26 16:53:00
12:53 PM,91.9,71.1,50,29.75,10.0,WSW,12.7,19.6,N/A,,Partly Cloudy,250,2013-06-26 17:53:00
1:53 PM,93.0,72.0,50,29.73,10.0,WSW,12.7,20.7,N/A,,Partly Cloudy,250,2013-06-26 18:53:00
2:53 PM,95.0,72.0,47,29.73,10.0,West,10.4,19.6,N/A,,Partly Cloudy,260,2013-06-26 19:53:00
3:53 PM,96.1,70.0,43,29.71,10.0,West,9.2,19.6,N/A,,Partly Cloudy,270,2013-06-26 20:53:00
4:53 PM,98.1,61.0,29,29.71,10.0,WNW,17.3,-,N/A,,Clear,290,2013-06-26 21:53:00
5:53 PM,97.0,63.0,32,29.73,10.0,WNW,11.5,-,N/A,,Clear,300,2013-06-26 22:53:00
6:53 PM,95.0,63.0,34,29.74,10.0,NW,10.4,-,N/A,,Clear,310,2013-06-26 23:53:00
7:53 PM,91.0,63.0,39,29.74,10.0,NW,5.8,-,N/A,,Clear,320,2013-06-27 00:53:00
8:53 PM,86.0,62.1,44,29.75,10.0,WNW,3.5,-,N/A,,Clear,290,2013-06-27 01:53:00
9:53 PM,82.0,63.0,52,29.78,10.0,NNW,3.5,-,N/A,,Clear,330,2013-06-27 02:53:00
10:53 PM,77.0,64.9,66,29.80,10.0,NW,5.8,-,N/A,,Clear,320,2013-06-27 03:53:00
11:53 PM,75.9,66.0,71,29.81,10.0,WNW,4.6,-,N/A,,Clear,300,2013-06-27 04:53:00